User: anonymous   Login
Location: Unspecified
(0.0000°N, 0.0000°E)
Time: 00:57:07
(UTC+00:00)
Language:

UWE-2 - Orbit

View from above orbital plane
View from above orbital plane
View from above satellite
View from above satellite

Ground track
Ground track

The orbit data is extracted from the following two-line orbital elements,

1 35934U 09051D   21023.45959621  .00000068  00000-0  26542-4 0  9995
2 35934  98.6115 216.3781 0006378 181.9444 178.1729 14.55998516601778
Epoch (UTC): 23 January 2021 11:01:49
Eccentricity: 0.0006378
inclination: 98.6115°
perigee height: 701 km
apogee height: 710 km
right ascension of ascending node: 216.3781°
argument of perigee: 181.9444°
revolutions per day: 14.55998516
mean anomaly at epoch: 178.1729°
orbit number at epoch: 60177

The dashed part of the orbit path shows where the satellite is in the earth's shadow,  

DLR